SCP
0 0 0 0 0 0 0 0 0 0 0 0 0 0 0 0 0 0 0 0 0 0 0 0 0 0 0 0 0 0 0 0 0 0 0 0 0 0 0 0 0 0 0
0 0 0 0 0 0 0 0 0 0 0 0 0 0 0 0 0 0 0 0 0 0 0 0 0 0 0 0 0 0 0 0 0 0 0 0 0 0 0 0 0 0 0
0 0 0 0 0 0 0 0 0 0 0 0 0 0 0 0 0 0 0 0 0 0 0 0 0 0 0 0 0 0 0 0 0 0 0 0 0 0 0 0 0 0 0
0 0 0 0 0 0 0 0 0 0 0 0 0 0 0 0 0 0 0 0 0 0 0 0 0 0 0 0 0 0 0 0 0 0 0 0 0 0 0 0 0 0 0
0 0 0 0 0 0 0 0 0 0 0 0 0 0 0 0 0 0 0 0 0 0 0 0 0 0 0 0 0 0 0 0 0 0 0 0 0 0 0 0 0 0 0
0 0 0 0 0 0 0 0 0 0 0 0 0 0 0 0 0 0 0 0 0 0 0 0 0 0 0 0 0 0 0 0 0 0 0 0 0 0 0 0 0 0 0
0 0 0 0 0 0 0 0 0 0 0 0 0 0 0 0 0 0 0 0 0 0 0 0 0 0 0 0 0 0 0 0 0 0 0 0 0 0 0 0 0 0 0
0 0 0 0 0 0 0 0 0 0 0 0 0 0 0 0 0 0 0 0 0 0 0 0 0 0 0 0 0 0 0 0 0 0 0 0 0 0 0 0 0 0 0
0 0 -0 0 0 0 0 0 0 0 0 0 0 0 0 0 0 0 0 0 0 0 0 0 0 0 0 0 0 0 0 0 0 0 0 0 0 0 0 0 0 0 0
0 0 0 0 0 0 0 0 0 0 0 0 0 0 0 0 0 0 0 0 0 0 0 0 0 0 0 0 0 0 0 0 0 0 0 0 0 0 0 0 0 0 0
0 0 0 0 0 0 0 0 0 0 0 0 0 0 0 0 0 0 0 0 0 0 0 -0 -0 0 0 0 0 0 0 0 0 0 0 0 0 0 0 0 0 0 0
0 0 0 0 0 0 0 0 0 0 0 0 0 0 0 0 0 0 0 0 0 0 -0 -0 0 0 0 0 0 0 0 0 0 0 0 0 0 0 0 0 0 0 0
0 0 0 0 0 0 0 0 0 0 -0 0 0 0 0 0 0 0 0 0 0 -0 0 0 0 0 0 0 0 0 0 0 0 0 0 0 0 0 0 0 0 0 0
0 0 0 0 0 0 0 0 0 0 0 0 0 0 0 -0 -0 0 0 0 0 0 0 0 0 0 0 0 0 0 0 0 0 0 0 0 0 0 0 0 0 0 0
0 0 0 0 0 0 0 0 0 0 0 0 0 0 0 0 0 0 0 0 0 0 0 0 0 0 0 0 0 0 0 0 0 0 0 0 0 0 0 0 0 0 0
0 0 0 0 0 0 0 0 0 0 0 0 0 0 0 0 0 0 0 0 0 0 0 0 0 0 0 0 0 0 0 0 0 0 0 0 0 0 0 0 0 0 0
0 0 0 0 0 0 0 0 0 0 0 0 0 0 0 0 0 0 0 0 0 0 0 0 0 0 0 0 0 0 0 0 0 0 0 0 0 0 0 0 0 0 0
0 0 0 0 0 0 0 0 0 0 0 0 0 0 0 0 0 0 0 0 0 0 0 0 0 0 0 0 0 0 0 0 0 0 0 0 0 0 0 0 0 0 0
0 0 0 0 0 0 0 0 0 0 0 0 0 0 0 0 0 0 0 0 0 0 0 0 0 0 0 0 0 0 0 0 0 0 0 0 0 0 0 0 0 0 0
0 0 0 0 0 0 0 0 0 0 0 0 0 0 0 0 0 0 0 0 0 0 0 0 0 0 0 0 0 0 0 0 0 0 0 0 0 0 0 0 0 0 0
0 0 0 0 0 0 0 0 0 0 0 0 0 0 0 0 0 0 0 0 0 0 0 0 0 0 0 0 0 0 0 0 0 0 0 0 0 0 0 0 0 0 0
0 0 0 0 0 0 0 0 0 0 0 0 0 0 0 0 0 0 0 0 0 0 0 0 0 0 0 0 0 0 0 0 0 0 0 0 0 0 0 0 0 0 0
0 0 0 0 0 0 0 0 0 0 0 0 0 0 0 0 0 0 0 0 0 0 0 0 0 0 0 0 0 0 0 0 0 0 0 0 0 0 0 0 0 0 0
0 0 0 0 0 0 0 0 0 0 0 0 0 0 0 0 0 0 0 0 0 0 0 0 0 0 0 0 0 0 0 0 0 0 0 0 0 0 0 0 0 0 0
0 0 0 0 0 0 0 0 0 0 0 0 0 0 0 0 0 0 0 0 0 0 0 0 0 0 0 0 0 0 0 0 0 0 0 0 0 0 0 0 0 0 0
0 0 0 0 0 0 0 0 0 0 0 0 0 0 0 0 0 0 0 0 0 0 0 0 0 0 0 0 0 0 0 0 0 0 0 0 0 0 0 0 0 0 0
Wind_Speed_500mb
8 6 7 21 33 40 45 47 43 40 40 41 42 42 41 41 40 40 42 43 41 37 33 30 30 30 28 26 25 25 24 25 32 37 36 28 23 24 20 21 25 35 38
5 7 8 12 20 28 34 36 38 39 40 42 43 41 38 37 38 40 41 41 37 34 33 32 29 26 25 23 23 24 23 22 26 32 36 25 32 29 26 46 34 39 46
5 5 8 12 18 24 29 33 37 41 41 38 36 37 39 40 39 40 39 38 36 34 31 28 26 24 23 21 22 23 23 23 20 23 17 14 14 62 49 45 47 55 62
2 5 10 15 20 24 28 30 33 35 37 40 41 41 41 41 40 38 36 34 34 33 29 27 25 24 23 23 22 23 23 23 22 21 13 17 27 20 36 53 58 58 66
12 13 16 20 24 27 30 33 36 38 41 43 43 42 41 39 36 34 32 31 31 29 28 27 25 25 25 25 25 24 24 22 22 22 24 31 35 33 35 57 69 70 69
12 14 17 21 22 27 31 34 37 38 38 38 38 38 36 34 33 31 29 28 27 28 28 26 25 24 25 25 25 25 22 21 23 23 26 34 32 39 37 57 70 84 89
14 18 21 23 24 28 31 35 36 35 36 35 35 34 32 30 29 28 27 27 29 30 30 27 26 25 25 26 27 24 21 23 26 29 35 39 39 40 48 57 70 71 92
20 24 25 24 26 27 29 31 31 32 33 33 31 30 29 29 28 30 30 31 31 30 30 29 27 26 28 28 27 26 25 29 34 40 42 43 41 39 40 46 51 70 78
19 18 15 18 22 25 26 26 27 28 29 30 31 30 29 30 29 30 31 30 29 27 28 29 25 28 28 27 29 26 28 33 34 35 34 34 34 35 39 43 46 48 57
15 15 12 13 19 22 24 25 25 27 30 31 30 27 25 27 27 24 22 25 27 27 26 24 26 26 24 26 24 22 24 31 30 33 34 31 33 34 36 39 42 46 57
12 15 14 13 15 17 18 20 21 22 24 25 24 22 23 23 19 19 23 28 28 25 22 22 21 20 20 17 16 18 20 22 25 26 30 31 32 32 34 38 43 48 51
10 14 16 15 16 16 17 18 19 18 19 20 20 19 18 17 18 22 25 26 22 21 20 15 14 13 12 11 9 9 13 18 23 25 26 25 26 28 32 37 44 47 48
8 13 16 16 17 17 16 18 20 20 20 20 20 19 18 19 21 22 19 16 15 15 14 11 8 7 6 3 2 6 11 16 22 27 27 23 22 22 28 35 41 46 49
11 14 18 18 19 19 19 18 20 21 23 20 20 19 22 23 23 20 14 15 13 13 11 9 8 8 8 8 10 12 15 18 21 23 25 23 20 21 26 32 36 38 43
23 18 22 23 22 22 21 22 24 24 24 21 20 20 23 22 19 15 16 15 12 13 13 10 11 13 12 14 15 17 18 21 20 22 23 22 21 22 26 32 31 34 38
19 20 21 27 28 27 28 23 23 27 27 23 23 27 26 24 20 19 21 17 14 16 18 17 19 19 20 22 21 24 24 24 25 23 23 24 22 22 24 26 29 32 36
20 21 26 31 34 34 32 31 27 26 29 29 29 32 34 32 28 28 29 25 24 28 26 26 27 25 25 27 27 30 31 29 28 28 26 24 24 24 23 24 26 28 30
24 26 30 32 32 36 35 32 32 33 32 31 33 38 41 41 39 41 39 35 36 38 37 35 35 38 32 34 34 35 36 36 33 32 30 28 25 26 27 26 24 25 25
24 27 32 35 35 35 36 34 30 32 35 35 35 37 43 48 49 51 50 47 49 49 48 47 46 47 42 39 39 40 42 42 39 36 35 33 30 27 29 32 31 28 27
23 26 27 28 31 29 30 31 30 30 31 33 35 38 42 47 51 52 55 57 59 62 61 61 58 54 53 44 45 44 49 51 45 39 40 38 37 33 33 36 36 36 31
18 20 22 25 28 28 27 27 30 30 32 32 33 35 37 42 46 52 54 55 59 64 67 69 67 64 60 56 50 51 53 57 52 49 43 38 41 41 39 40 42 40 40
16 17 19 22 24 27 28 28 31 32 33 34 34 34 35 38 39 43 46 49 53 59 63 67 70 70 67 63 59 55 55 56 60 57 47 42 44 46 45 44 43 42 44
14 17 19 21 24 27 30 31 32 34 34 33 33 34 34 34 36 39 40 41 44 49 54 58 63 64 64 62 61 62 57 57 60 61 53 49 48 48 49 48 47 46 46
15 19 20 22 24 27 30 32 35 36 36 35 33 33 33 32 30 32 35 37 38 40 43 45 48 49 51 53 54 57 58 59 60 58 57 55 54 52 52 50 48 48 47
17 22 25 26 27 29 31 34 35 37 37 36 36 35 34 34 33 30 32 33 30 31 36 38 39 42 46 41 39 39 47 54 53 51 55 58 57 53 52 50 50 48 47
21 24 26 27 29 31 33 34 35 37 38 36 36 37 38 37 35 36 29 22 29 31 30 31 31 36 43 42 37 36 39 36 38 45 54 52 53 53 51 49 48 47 46
Wind_Direction_500mb
14 338 239 212 212 209 210 214 225 239 253 264 271 272 270 270 271 275 279 284 285 286 285 284 290 294 296 296 298 303 305 306 311 320 313 319 314 316 313 314 311 303 299
93 91 117 156 178 194 203 220 237 252 263 269 271 269 268 268 272 275 278 279 280 280 281 284 286 285 285 293 298 300 307 313 323 332 335 330 313 299 310 308 302 300 303
238 232 217 212 220 229 238 247 257 265 269 270 270 271 273 275 277 276 276 277 277 277 279 282 282 282 285 288 292 294 299 305 318 330 339 338 311 312 310 304 305 311 307
0 297 272 261 258 257 258 261 264 268 271 274 278 279 278 279 278 275 272 271 272 274 278 279 278 279 279 283 285 292 299 304 320 328 319 298 292 306 310 301 307 308 310
296 282 275 269 269 268 269 270 271 273 275 278 280 280 278 277 275 272 270 269 270 274 275 276 275 275 279 286 289 295 300 308 312 309 310 305 300 289 281 302 311 310 313
292 290 282 274 272 271 273 275 276 278 279 279 278 278 277 275 273 271 268 266 268 272 274 273 272 275 280 286 293 294 296 299 296 299 301 294 291 291 288 295 301 307 315
300 288 282 280 278 277 277 277 276 276 277 278 278 278 276 274 270 268 266 268 269 269 269 268 267 272 278 281 280 282 288 290 297 296 289 283 279 273 278 287 296 300 311
302 289 279 277 274 279 280 275 273 273 275 278 278 277 277 274 271 270 270 271 269 263 262 262 261 266 271 275 283 287 297 299 295 289 284 285 287 291 293 293 299 306 308
328 316 294 278 278 283 282 279 275 276 276 276 276 276 276 275 273 273 275 273 267 261 258 251 255 260 266 275 280 294 301 297 293 291 291 295 301 299 295 294 298 296 297
343 340 327 298 293 291 286 280 277 277 277 276 276 273 272 273 276 276 275 271 259 255 251 254 253 256 266 272 285 299 294 293 294 291 289 289 288 289 290 293 294 292 288
352 354 342 320 305 296 295 297 292 286 278 274 272 274 275 271 271 276 269 260 255 252 251 250 254 261 265 280 294 295 296 308 312 307 301 297 289 286 289 292 294 292 291
328 332 327 328 318 309 307 305 300 294 286 284 282 283 276 278 278 263 255 257 251 242 248 250 256 267 281 285 291 304 327 337 338 332 322 313 296 290 293 295 296 297 296
292 312 304 309 314 310 306 302 298 293 288 290 288 287 280 267 256 255 255 257 248 244 245 249 261 269 277 274 316 327 333 344 353 354 345 333 320 310 302 302 302 302 303
277 322 319 309 311 314 308 295 286 283 280 281 283 277 266 254 252 253 257 256 258 256 247 236 242 243 234 266 287 296 310 315 322 331 347 348 338 329 322 316 313 314 313
258 289 324 329 316 307 305 306 292 278 273 277 276 272 265 260 256 259 257 250 247 248 244 234 238 251 254 270 282 294 302 305 310 316 321 323 330 332 332 331 333 324 323
276 280 305 323 321 314 307 304 304 297 278 268 267 267 265 260 259 256 253 250 245 245 246 247 252 258 266 274 281 286 290 295 301 302 301 308 316 317 314 316 321 322 326
300 298 301 316 316 312 311 307 298 292 293 274 265 263 263 262 260 258 257 254 251 251 255 256 260 260 264 272 277 282 286 289 290 293 295 297 303 306 308 311 313 317 319
313 313 311 311 308 308 308 307 300 292 284 283 270 261 262 262 259 258 257 255 255 256 257 259 263 266 267 273 275 277 281 283 283 285 287 288 290 296 301 305 309 314 318
310 309 314 314 314 311 310 308 301 294 289 283 278 275 272 269 266 263 262 260 258 259 261 262 262 267 270 269 271 274 276 278 278 279 280 282 283 285 291 296 301 304 308
308 315 314 314 315 313 313 313 311 305 300 294 288 283 278 276 274 272 268 264 262 262 263 263 265 265 267 266 267 270 274 274 276 273 273 276 280 280 283 287 293 296 300
316 320 318 320 323 325 326 323 320 316 313 309 303 297 292 286 281 277 274 272 269 266 265 265 265 265 264 265 264 267 270 274 275 271 269 270 274 277 279 282 285 291 294
320 323 326 331 333 331 332 330 325 323 319 317 313 307 301 296 293 287 282 277 275 273 271 270 268 268 267 266 266 266 267 269 271 271 268 267 267 272 276 279 281 284 287
327 335 337 340 338 337 337 337 333 330 328 325 320 315 312 308 302 297 293 289 284 282 281 280 279 277 274 269 265 264 264 263 265 270 271 267 267 268 271 274 278 282 286
342 347 346 345 344 341 340 339 336 334 333 333 331 326 323 319 317 309 304 301 298 293 290 291 292 290 286 281 272 265 261 261 263 265 267 267 266 268 271 271 273 278 281
357 354 352 351 347 344 342 340 338 336 336 338 338 336 333 331 328 324 320 310 308 306 305 303 301 305 301 299 297 289 270 260 263 263 261 263 267 268 269 274 277 277 278
15 8 359 354 349 345 343 342 340 339 339 341 341 342 342 340 338 334 330 325 311 304 297 283 278 282 288 297 297 294 289 282 272 269 267 267 268 272 275 276 278 281 284
Wind_Speed_850mb
8 6 7 21 33 40 45 47 43 40 40 41 42 42 41 41 40 40 42 43 41 37 33 30 30 30 28 26 25 25 24 25 32 37 36 28 23 24 20 21 25 35 38
5 7 8 12 20 28 34 36 38 39 40 42 43 41 38 37 38 40 41 41 37 34 33 32 29 26 25 23 23 24 23 22 26 32 36 25 32 29 26 46 34 39 46
5 5 8 12 18 24 29 33 37 41 41 38 36 37 39 40 39 40 39 38 36 34 31 28 26 24 23 21 22 23 23 23 20 23 17 14 14 62 49 45 47 55 62
2 5 10 15 20 24 28 30 33 35 37 40 41 41 41 41 40 38 36 34 34 33 29 27 25 24 23 23 22 23 23 23 22 21 13 17 27 20 36 53 58 58 66
12 13 16 20 24 27 30 33 36 38 41 43 43 42 41 39 36 34 32 31 31 29 28 27 25 25 25 25 25 24 24 22 22 22 24 31 35 33 35 57 69 70 69
12 14 17 21 22 27 31 34 37 38 38 38 38 38 36 34 33 31 29 28 27 28 28 26 25 24 25 25 25 25 22 21 23 23 26 34 32 39 37 57 70 84 89
14 18 21 23 24 28 31 35 36 35 36 35 35 34 32 30 29 28 27 27 29 30 30 27 26 25 25 26 27 24 21 23 26 29 35 39 39 40 48 57 70 71 92
20 24 25 24 26 27 29 31 31 32 33 33 31 30 29 29 28 30 30 31 31 30 30 29 27 26 28 28 27 26 25 29 34 40 42 43 41 39 40 46 51 70 78
19 18 15 18 22 25 26 26 27 28 29 30 31 30 29 30 29 30 31 30 29 27 28 29 25 28 28 27 29 26 28 33 34 35 34 34 34 35 39 43 46 48 57
15 15 12 13 19 22 24 25 25 27 30 31 30 27 25 27 27 24 22 25 27 27 26 24 26 26 24 26 24 22 24 31 30 33 34 31 33 34 36 39 42 46 57
12 15 14 13 15 17 18 20 21 22 24 25 24 22 23 23 19 19 23 28 28 25 22 22 21 20 20 17 16 18 20 22 25 26 30 31 32 32 34 38 43 48 51
10 14 16 15 16 16 17 18 19 18 19 20 20 19 18 17 18 22 25 26 22 21 20 15 14 13 12 11 9 9 13 18 23 25 26 25 26 28 32 37 44 47 48
8 13 16 16 17 17 16 18 20 20 20 20 20 19 18 19 21 22 19 16 15 15 14 11 8 7 6 3 2 6 11 16 22 27 27 23 22 22 28 35 41 46 49
11 14 18 18 19 19 19 18 20 21 23 20 20 19 22 23 23 20 14 15 13 13 11 9 8 8 8 8 10 12 15 18 21 23 25 23 20 21 26 32 36 38 43
23 18 22 23 22 22 21 22 24 24 24 21 20 20 23 22 19 15 16 15 12 13 13 10 11 13 12 14 15 17 18 21 20 22 23 22 21 22 26 32 31 34 38
19 20 21 27 28 27 28 23 23 27 27 23 23 27 26 24 20 19 21 17 14 16 18 17 19 19 20 22 21 24 24 24 25 23 23 24 22 22 24 26 29 32 36
20 21 26 31 34 34 32 31 27 26 29 29 29 32 34 32 28 28 29 25 24 28 26 26 27 25 25 27 27 30 31 29 28 28 26 24 24 24 23 24 26 28 30
24 26 30 32 32 36 35 32 32 33 32 31 33 38 41 41 39 41 39 35 36 38 37 35 35 38 32 34 34 35 36 36 33 32 30 28 25 26 27 26 24 25 25
24 27 32 35 35 35 36 34 30 32 35 35 35 37 43 48 49 51 50 47 49 49 48 47 46 47 42 39 39 40 42 42 39 36 35 33 30 27 29 32 31 28 27
23 26 27 28 31 29 30 31 30 30 31 33 35 38 42 47 51 52 55 57 59 62 61 61 58 54 53 44 45 44 49 51 45 39 40 38 37 33 33 36 36 36 31
18 20 22 25 28 28 27 27 30 30 32 32 33 35 37 42 46 52 54 55 59 64 67 69 67 64 60 56 50 51 53 57 52 49 43 38 41 41 39 40 42 40 40
16 17 19 22 24 27 28 28 31 32 33 34 34 34 35 38 39 43 46 49 53 59 63 67 70 70 67 63 59 55 55 56 60 57 47 42 44 46 45 44 43 42 44
14 17 19 21 24 27 30 31 32 34 34 33 33 34 34 34 36 39 40 41 44 49 54 58 63 64 64 62 61 62 57 57 60 61 53 49 48 48 49 48 47 46 46
15 19 20 22 24 27 30 32 35 36 36 35 33 33 33 32 30 32 35 37 38 40 43 45 48 49 51 53 54 57 58 59 60 58 57 55 54 52 52 50 48 48 47
17 22 25 26 27 29 31 34 35 37 37 36 36 35 34 34 33 30 32 33 30 31 36 38 39 42 46 41 39 39 47 54 53 51 55 58 57 53 52 50 50 48 47
21 24 26 27 29 31 33 34 35 37 38 36 36 37 38 37 35 36 29 22 29 31 30 31 31 36 43 42 37 36 39 36 38 45 54 52 53 53 51 49 48 47 46
Wind_Direction_850mb
14 338 239 212 212 209 210 214 225 239 253 264 271 272 270 270 271 275 279 284 285 286 285 284 290 294 296 296 298 303 305 306 311 320 313 319 314 316 313 314 311 303 299
93 91 117 156 178 194 203 220 237 252 263 269 271 269 268 268 272 275 278 279 280 280 281 284 286 285 285 293 298 300 307 313 323 332 335 330 313 299 310 308 302 300 303
238 232 217 212 220 229 238 247 257 265 269 270 270 271 273 275 277 276 276 277 277 277 279 282 282 282 285 288 292 294 299 305 318 330 339 338 311 312 310 304 305 311 307
0 297 272 261 258 257 258 261 264 268 271 274 278 279 278 279 278 275 272 271 272 274 278 279 278 279 279 283 285 292 299 304 320 328 319 298 292 306 310 301 307 308 310
296 282 275 269 269 268 269 270 271 273 275 278 280 280 278 277 275 272 270 269 270 274 275 276 275 275 279 286 289 295 300 308 312 309 310 305 300 289 281 302 311 310 313
292 290 282 274 272 271 273 275 276 278 279 279 278 278 277 275 273 271 268 266 268 272 274 273 272 275 280 286 293 294 296 299 296 299 301 294 291 291 288 295 301 307 315
300 288 282 280 278 277 277 277 276 276 277 278 278 278 276 274 270 268 266 268 269 269 269 268 267 272 278 281 280 282 288 290 297 296 289 283 279 273 278 287 296 300 311
302 289 279 277 274 279 280 275 273 273 275 278 278 277 277 274 271 270 270 271 269 263 262 262 261 266 271 275 283 287 297 299 295 289 284 285 287 291 293 293 299 306 308
328 316 294 278 278 283 282 279 275 276 276 276 276 276 276 275 273 273 275 273 267 261 258 251 255 260 266 275 280 294 301 297 293 291 291 295 301 299 295 294 298 296 297
343 340 327 298 293 291 286 280 277 277 277 276 276 273 272 273 276 276 275 271 259 255 251 254 253 256 266 272 285 299 294 293 294 291 289 289 288 289 290 293 294 292 288
352 354 342 320 305 296 295 297 292 286 278 274 272 274 275 271 271 276 269 260 255 252 251 250 254 261 265 280 294 295 296 308 312 307 301 297 289 286 289 292 294 292 291
328 332 327 328 318 309 307 305 300 294 286 284 282 283 276 278 278 263 255 257 251 242 248 250 256 267 281 285 291 304 327 337 338 332 322 313 296 290 293 295 296 297 296
292 312 304 309 314 310 306 302 298 293 288 290 288 287 280 267 256 255 255 257 248 244 245 249 261 269 277 274 316 327 333 344 353 354 345 333 320 310 302 302 302 302 303
277 322 319 309 311 314 308 295 286 283 280 281 283 277 266 254 252 253 257 256 258 256 247 236 242 243 234 266 287 296 310 315 322 331 347 348 338 329 322 316 313 314 313
258 289 324 329 316 307 305 306 292 278 273 277 276 272 265 260 256 259 257 250 247 248 244 234 238 251 254 270 282 294 302 305 310 316 321 323 330 332 332 331 333 324 323
276 280 305 323 321 314 307 304 304 297 278 268 267 267 265 260 259 256 253 250 245 245 246 247 252 258 266 274 281 286 290 295 301 302 301 308 316 317 314 316 321 322 326
300 298 301 316 316 312 311 307 298 292 293 274 265 263 263 262 260 258 257 254 251 251 255 256 260 260 264 272 277 282 286 289 290 293 295 297 303 306 308 311 313 317 319
313 313 311 311 308 308 308 307 300 292 284 283 270 261 262 262 259 258 257 255 255 256 257 259 263 266 267 273 275 277 281 283 283 285 287 288 290 296 301 305 309 314 318
310 309 314 314 314 311 310 308 301 294 289 283 278 275 272 269 266 263 262 260 258 259 261 262 262 267 270 269 271 274 276 278 278 279 280 282 283 285 291 296 301 304 308
308 315 314 314 315 313 313 313 311 305 300 294 288 283 278 276 274 272 268 264 262 262 263 263 265 265 267 266 267 270 274 274 276 273 273 276 280 280 283 287 293 296 300
316 320 318 320 323 325 326 323 320 316 313 309 303 297 292 286 281 277 274 272 269 266 265 265 265 265 264 265 264 267 270 274 275 271 269 270 274 277 279 282 285 291 294
320 323 326 331 333 331 332 330 325 323 319 317 313 307 301 296 293 287 282 277 275 273 271 270 268 268 267 266 266 266 267 269 271 271 268 267 267 272 276 279 281 284 287
327 335 337 340 338 337 337 337 333 330 328 325 320 315 312 308 302 297 293 289 284 282 281 280 279 277 274 269 265 264 264 263 265 270 271 267 267 268 271 274 278 282 286
342 347 346 345 344 341 340 339 336 334 333 333 331 326 323 319 317 309 304 301 298 293 290 291 292 290 286 281 272 265 261 261 263 265 267 267 266 268 271 271 273 278 281
357 354 352 351 347 344 342 340 338 336 336 338 338 336 333 331 328 324 320 310 308 306 305 303 301 305 301 299 297 289 270 260 263 263 261 263 267 268 269 274 277 277 278
15 8 359 354 349 345 343 342 340 339 339 341 341 342 342 340 338 334 330 325 311 304 297 283 278 282 288 297 297 294 289 282 272 269 267 267 268 272 275 276 278 281 284